Stations météo

Publicité
Amberieu, France (7482): Température de l'air & dewpoint: 12.01.2018 06:00:00 - 18.01.2018 06:00:00 (CET)Amberieu, France (7482): Température de l'air 5cm: 12.01.2018 06:00:00 - 18.01.2018 06:00:00 (CET)Amberieu, France (7482): Température de l'air -20cm & Température de l'air -100cm: 12.01.2018 06:00:00 - 18.01.2018 06:00:00 (CET)Amberieu, France (7482): Vitesse du vent & gusts: 12.01.2018 06:00:00 - 18.01.2018 06:00:00 (CET)Amberieu, France (7482): Direction du vent: 12.01.2018 06:00:00 - 18.01.2018 06:00:00 (CET)Amberieu, France (7482): reduced air pressure: 12.01.2018 06:00:00 - 18.01.2018 06:00:00 (CET)Amberieu, France (7482): visibility: 12.01.2018 06:00:00 - 18.01.2018 06:00:00 (CET)Amberieu, France (7482): Ensoleillement: 12.01.2018 06:00:00 - 18.01.2018 06:00:00 (CET)Amberieu, France (7482): Quantités de précipitations: 12.01.2018 06:00:00 - 18.01.2018 06:00:00 (CET)
Date & Time tt [°C] td [°C] tt 5cm [°C] tt -20cm [°C] tt -100cm [°C] ff [km/h] ff [knt] fx [km/h] fx [knt] dd ppp [hPa] vv [km] sd [min] rr [mm]
18.01.2018 06:00:00 6,1 -0,2 5,0 7,0 8,6 11 6 31 17 S 1020,8 20 0 0,0
18.01.2018 05:00:00 5,4 0,6 3,4 7,0 8,5 12 6 23 13 SSE 1020,6 20 0 0,0
18.01.2018 04:00:00 4,4 1,2 3,3 7,0 8,6 8 4 16 8 SSE 1021,7 20 0 0,0
18.01.2018 03:00:00 4,1 1,1 3,2 7,0 8,5 8 5 16 8 S 1022,9 20 0 0,0
18.01.2018 02:00:00 3,9 0,8 2,8 7,0 8,5 6 4 18 10 SE 1023,5 20 0 0,0
18.01.2018 01:00:00 3,7 0,7 2,2 7,1 8,5 4 2 14 8 S 1024,3 20 0 0,0
18.01.2018 00:00:00 3,2 0,4 0,7 7,1 8,5 4 2 14 8 S 1024,6 20 0 0,0
17.01.2018 23:00:00 1,6 0,6 -0,8 7,1 8,6 6 3 14 7 SSE 1023,8 20 0 0,0
17.01.2018 22:00:00 2,3 0,7 1,1 7,1 8,5 6 3 13 7 S 1023,8 20 0 0,0
17.01.2018 21:00:00 2,1 0,5 0,8 7,1 8,6 5 3 15 8 SE 1023,8 20 0 0,0
17.01.2018 20:00:00 2,7 0,8 1,2 7,1 8,6 9 5 13 7 SE 1023,6 20 0 0,0
17.01.2018 19:00:00 3,0 0,4 0,3 7,1 8,5 8 4 12 6 SE 1023,0 20 0 0,0
17.01.2018 18:00:00 3,3 1,0 0,2 7,1 8,6 6 3 9 5 SSE 1022,6 20 0 0,0
17.01.2018 17:00:00 4,3 0,8 1,5 7,1 8,6 0 0 10 5 N 1021,6 20 12 0,0
17.01.2018 16:00:00 5,6 2,2 4,4 7,1 8,6 9 5 37 20 NE 1020,8 20 26 0,0
17.01.2018 15:00:00 6,1 0,6 5,6 7,1 8,6 14 8 31 17 NW 1019,8 20 35 0,0
17.01.2018 14:00:00 5,2 2,7 2,0 7,1 8,6 4 2 13 7 E 1019,8 20 36 0,0
17.01.2018 13:00:00 2,0 1,6 0,7 7,1 8,6 16 9 58 31 N 1020,0 13 0 1,8
17.01.2018 12:00:00 6,5 1,8 4,7 7,1 8,6 14 8 29 16 W 1018,7 20 0 0,0
17.01.2018 11:00:00 5,7 1,4 4,0 7,1 8,6 7 4 15 8 WSW 1018,2 20 0 0,0
17.01.2018 10:00:00 4,3 2,5 2,3 7,1 8,6 3 2 22 12 SSW 1017,5 20 0 0,0
17.01.2018 09:00:00 3,0 2,1 0,3 7,1 8,6 4 2 18 10 SSE 1016,4 20 0 0,0
17.01.2018 08:00:00 2,8 2,1 1,7 7,1 8,6 12 7 39 21 W 1015,2 6 0 1,6
17.01.2018 07:00:00 4,0 1,9 2,9 7,1 8,6 28 15 45 25 NNW 1013,8 11 0 0,0
17.01.2018 06:00:00 5,2 2,5 2,6 7,1 8,6 13 7 29 16 SSW 1012,3 20 0 0,0
17.01.2018 05:00:00 4,6 2,5 2,3 7,1 8,6 11 6 19 11 S 1011,6 20 0 0,0
17.01.2018 04:00:00 5,8 3,1 4,1 7,1 8,6 10 5 41 22 SW 1011,5 20 0 0,2
17.01.2018 03:00:00 6,9 4,7 5,3 7,1 8,6 17 9 27 15 SW 1011,6 16 0 0,0
17.01.2018 02:00:00 7,1 4,4 5,3 7,0 8,6 9 5 35 19 WSW 1010,3 20 0 0,4
17.01.2018 01:00:00 8,0 5,5 6,4 7,1 8,6 15 8 27 15 WSW 1010,0 18 0 0,0
17.01.2018 00:00:00 8,2 6,2 7,0 7,0 8,6 7 4 21 11 WSW 1010,2 18 0 0,2
16.01.2018 23:00:00 8,9 5,8 7,5 7,0 8,6 9 5 36 20 WSW 1009,7 20 0 0,0
16.01.2018 22:00:00 8,3 8,0 6,3 7,0 8,6 7 4 15 8 S 1010,2 20 0 0,0
16.01.2018 21:00:00 8,7 7,9 6,7 7,0 8,6 6 3 22 12 SSE 1010,2 20 0 2,2
16.01.2018 20:00:00 10,1 8,0 8,2 6,9 8,6 14 8 32 17 S 1009,1 19 0 0,2
16.01.2018 19:00:00 9,0 8,4 8,1 6,9 8,6 13 7 23 12 S 1009,3 20 0 1,4
16.01.2018 18:00:00 9,1 8,5 8,4 6,9 8,6 9 5 29 16 SSW 1010,0 2,9 0 3,6
16.01.2018 17:00:00 10,1 7,9 8,7 6,9 8,6 16 9 51 27 S 1009,3 14 0 0,4
16.01.2018 16:00:00 10,4 7,6 9,0 6,9 8,6 19 10 40 21 S 1010,3 18 0 0,0
16.01.2018 15:00:00 10,2 8,1 9,1 6,8 8,6 21 11 37 20 S 1011,1 20 0 0,2
16.01.2018 14:00:00 9,9 7,8 9,1 6,8 8,6 17 9 39 21 S 1012,3 14 0 0,4
16.01.2018 13:00:00 10,3 7,4 10,5 6,8 8,6 21 11 42 23 S 1013,1 20 0 0,0
16.01.2018 12:00:00 10,3 7,9 8,3 6,8 8,6 20 11 44 24 S 1013,4 20 7 0,0
16.01.2018 11:00:00 8,1 7,2 7,1 6,8 8,6 16 9 32 17 S 1013,5 20 0 1,2
16.01.2018 10:00:00 7,6 6,7 6,8 6,8 8,7 14 8 30 16 S 1013,7 12 0 1,0
16.01.2018 09:00:00 7,6 6,4 6,5 6,8 8,7 14 7 41 22 S 1012,9 16 0 0,6
16.01.2018 08:00:00 7,4 6,2 6,4 6,8 8,7 13 7 37 20 S 1012,3 9 0 1,0
16.01.2018 07:00:00 7,7 5,7 6,0 6,8 8,6 19 10 40 21 S 1012,1 19 0 0,2
16.01.2018 06:00:00 6,8 5,6 6,0 6,8 8,7 15 8 37 20 S 1012,9 18 0 0,8
16.01.2018 05:00:00 7,4 5,2 6,0 6,8 8,7 16 9 38 21 S 1012,5 20 0 0,0
16.01.2018 04:00:00 7,2 5,0 6,0 6,7 8,7 17 9 44 24 S 1013,0 20 0 0,2
16.01.2018 03:00:00 7,7 4,6 6,5 6,7 8,7 21 11 42 23 S 1013,0 20 0 0,0
16.01.2018 02:00:00 7,6 4,5 5,8 6,8 8,7 21 11 45 24 S 1013,7 20 0 0,0
16.01.2018 01:00:00 7,4 4,5 5,7 6,7 8,7 25 13 55 30 S 1014,1 20 0 0,4
16.01.2018 00:00:00 7,6 4,0 5,7 6,8 8,7 26 14 51 27 S 1014,5 20 0 0,0
15.01.2018 23:00:00 7,0 4,3 5,4 6,7 8,7 24 13 54 29 S 1014,7 16 0 0,2
15.01.2018 22:00:00 6,6 4,6 5,4 6,7 8,7 30 16 54 29 S 1015,3 17 0 0,2
15.01.2018 21:00:00 6,6 4,9 5,5 6,7 8,7 31 17 60 33 S 1015,7 6 0 0,8
15.01.2018 20:00:00 6,7 5,3 5,7 6,7 8,7 26 14 55 30 S 1015,9 9 0 2,4
15.01.2018 19:00:00 7,5 4,6 6,0 6,7 8,7 33 18 58 31 S 1016,3 8 0 0,4
15.01.2018 18:00:00 9,0 3,2 8,6 6,7 8,7 25 13 49 26 S 1015,7 20 0 0,0
15.01.2018 17:00:00 9,3 3,1 8,9 6,7 8,7 27 15 49 26 S 1016,0 20 4 0,0
15.01.2018 16:00:00 9,7 3,4 9,9 6,7 8,7 22 12 45 25 S 1016,7 20 0 0,0
15.01.2018 15:00:00 10,0 3,9 10,1 6,7 8,7 24 13 43 23 S 1017,6 20 0 0,0
15.01.2018 14:00:00 9,6 3,3 10,1 6,8 8,7 16 8 37 20 S 1018,9 20 21 0,0
15.01.2018 13:00:00 9,7 3,2 9,4 6,8 8,7 16 9 37 20 S 1019,5 20 8 0,0
15.01.2018 12:00:00 8,2 2,2 8,1 6,8 8,7 19 11 37 20 S 1020,5 19 32 0,0
15.01.2018 11:00:00 5,3 1,6 3,2 6,8 8,7 21 12 33 18 S 1021,8 11 52 0,0
15.01.2018 10:00:00 2,4 0,8 -2,0 6,9 8,7 14 8 23 12 SSW 1022,5 8 36 0,0
15.01.2018 09:00:00 0,5 0,1 -3,6 6,9 8,8 5 3 11 6 S 1022,8 6 0 0,0
15.01.2018 08:00:00 -0,8 -1,1 -4,9 6,9 8,8 0 0 9 5 N 1022,7 8 0 0,0
15.01.2018 07:00:00 -1,4 -1,7 -5,2 7,0 8,8 5 3 7 4 W 1022,7 8 0 0,0
15.01.2018 06:00:00 -1,5 -1,9 -4,6 7,0 8,8 5 3 9 5 NNE 1022,7 12 0 0,0
15.01.2018 05:00:00 0,0 -0,6 -4,1 7,0 8,8 3 2 5 3 NNE 1022,7 11 0 0,0
15.01.2018 04:00:00 0,1 -0,2 -3,1 7,0 8,8 4 2 9 5 NE 1022,9 9 0 0,0
15.01.2018 03:00:00 1,6 0,6 -1,3 7,0 8,8 6 3 8 5 S 1022,7 9 0 0,0
15.01.2018 02:00:00 1,9 1,2 0,2 7,0 8,8 2 1 8 4 E 1023,1 16 0 0,0
15.01.2018 01:00:00 1,2 0,5 -1,0 7,0 8,8 5 3 6 3 N 1023,2 10 0 0,0
15.01.2018 00:00:00 2,1 0,6 -0,4 7,0 8,8 2 1 4 2 NNE 1023,4 19 0 0,0
14.01.2018 23:00:00 4,0 0,7 -0,2 7,0 8,8 4 2 5 3 SSE 1022,8 17 0 0,0
14.01.2018 22:00:00 4,3 1,3 1,5 7,0 8,8 3 1 5 3 S 1022,3 11 0 0,0
14.01.2018 21:00:00 5,0 0,9 2,9 7,0 8,8 4 2 8 4 SE 1021,7 20 0 0,0
14.01.2018 20:00:00 4,7 1,2 1,9 7,0 8,8 4 2 10 5 E 1021,2 20 0 0,0
14.01.2018 19:00:00 3,6 1,5 0,6 7,0 8,8 4 2 8 4 NNE 1020,7 20 0 0,0
14.01.2018 18:00:00 5,9 1,2 1,8 7,0 8,8 5 3 9 5 SE 1019,9 19 0 0,0
14.01.2018 17:00:00 7,1 1,4 4,1 6,9 8,8 6 3 8 5 SE 1019,4 20 3 0,0
14.01.2018 16:00:00 10,4 2,0 13,0 7,0 8,8 5 3 10 6 SSW 1018,8 20 60 0,0
14.01.2018 15:00:00 10,2 2,3 13,4 7,0 8,8 4 2 9 5 S 1018,7 19 56 0,0
14.01.2018 14:00:00 8,6 2,8 9,7 7,0 8,8 0 0 10 6 N 1019,0 19 25 0,0
14.01.2018 13:00:00 6,2 2,5 9,1 7,1 8,8 6 4 10 6 NNE 1019,8 20 0 0,0
14.01.2018 12:00:00 6,1 2,0 7,5 7,1 8,8 3 2 6 4 NE 1020,2 15 0 0,0
14.01.2018 11:00:00 4,2 1,6 3,1 7,1 8,8 2 1 9 5 SSW 1020,6 14 0 0,0
14.01.2018 10:00:00 1,4 0,7 -0,2 7,2 8,8 5 3 9 5 NNE 1020,1 14 0 0,0
14.01.2018 09:00:00 0,0 -0,7 -1,9 7,2 8,8 3 2 5 3 NNW 1019,9 11 0 0,0
14.01.2018 08:00:00 0,3 -0,4 -1,3 7,2 8,8 4 2 8 4 E 1019,1 11 0 0,0
14.01.2018 07:00:00 0,1 -0,3 -1,4 7,2 8,8 7 4 10 5 N 1018,9 11 0 0,0
14.01.2018 06:00:00 0,1 -0,5 -1,9 7,3 8,8 5 3 7 4 NNE 1018,7 8 0 0,0
14.01.2018 05:00:00 0,1 -0,6 -2,1 7,3 8,8 4 2 9 5 NNE 1018,9 8 0 0,0
14.01.2018 04:00:00 0,1 -0,9 -2,0 7,3 8,8 6 4 9 5 NE 1018,9 7 0 0,0
14.01.2018 03:00:00 0,8 -0,8 -1,2 7,4 8,8 5 3 14 8 NE 1019,3 8 0 0,0
14.01.2018 02:00:00 2,3 -0,5 -0,7 7,4 8,8 8 4 12 6 SSW 1018,9 15 0 0,0
14.01.2018 01:00:00 3,4 0,4 -0,1 7,4 8,8 6 3 12 6 SE 1018,9 20 0 0,0
14.01.2018 00:00:00 3,8 1,0 0,4 7,4 8,9 9 5 17 9 S 1019,2 16 0 0,0
13.01.2018 23:00:00 5,3 2,3 -0,4 7,4 8,9 6 4 21 11 SSE 1018,9 20 0 0,0
13.01.2018 22:00:00 5,2 2,2 -0,2 7,4 8,8 6 3 16 9 SSE 1018,8 20 0 0,0
13.01.2018 21:00:00 3,7 0,6 0,1 7,4 8,9 4 2 12 7 S 1019,1 20 0 0,0
13.01.2018 20:00:00 4,3 0,3 1,1 7,4 8,8 5 3 11 6 SSE 1019,3 20 0 0,0
13.01.2018 19:00:00 5,2 0,4 1,5 7,4 8,8 6 4 13 7 SE 1018,8 20 0 0,0
13.01.2018 18:00:00 6,2 0,1 1,8 7,3 8,8 5 3 21 11 SE 1018,9 20 0 0,0
13.01.2018 17:00:00 8,6 0,6 7,1 7,4 8,9 11 6 24 13 S 1018,6 20 48 0,0
13.01.2018 16:00:00 10,0 1,6 12,4 7,3 8,8 16 8 26 14 S 1018,7 20 60 0,0
13.01.2018 15:00:00 6,7 3,1 12,4 7,3 8,8 6 3 10 6 NNE 1019,3 10 56 0,0
13.01.2018 14:00:00 6,0 3,0 9,1 7,3 8,8 5 3 12 7 NNE 1019,9 9 60 0,0
13.01.2018 13:00:00 4,6 2,3 7,5 7,3 8,8 5 3 11 6 NNE 1021,1 7 33 0,0
13.01.2018 12:00:00 4,4 2,1 6,9 7,4 8,9 2 1 7 4 S 1022,0 6 5 0,0
13.01.2018 11:00:00 3,6 2,6 3,7 7,4 8,9 0 0 5 3 N 1022,4 6 0 0,0
13.01.2018 10:00:00 2,4 2,1 2,6 7,4 8,9 4 2 9 5 ESE 1022,7 5 0 0,0
13.01.2018 09:00:00 2,4 2,4 2,2 7,4 8,8 3 2 8 4 E 1022,8 1,0 0 0,0
13.01.2018 08:00:00 2,5 2,5 2,4 7,4 8,9 4 2 8 4 ENE 1022,3 1,4 0 0,0
13.01.2018 07:00:00 2,5 2,4 1,5 7,4 8,9 3 1 6 3 SE 1022,4 2,7 0 0,0
13.01.2018 06:00:00 1,9 1,8 0,1 7,4 8,9 4 2 7 4 SSE 1022,8 6 0 0,0
13.01.2018 05:00:00 1,8 1,4 -1,9 7,5 8,9 4 2 7 4 ESE 1023,1 7 0 0,0
13.01.2018 04:00:00 2,9 2,6 -1,8 7,5 8,9 0 0 3 2 N 1023,7 2,7 0 0,0
13.01.2018 03:00:00 4,1 3,4 2,7 7,5 8,9 3 1 4 2 NE 1024,0 4,1 0 0,0
13.01.2018 02:00:00 4,4 3,7 4,2 7,5 8,9 0 0 7 4 N 1024,5 5 0 0,0
13.01.2018 01:00:00 4,4 3,7 4,2 7,5 8,9 2 1 6 4 SW 1024,7 5 0 0,0
13.01.2018 00:00:00 4,4 3,7 4,2 7,5 8,9 2 1 6 3 SW 1024,8 7 0 0,0
12.01.2018 23:00:00 4,5 3,9 4,1 7,5 8,9 4 2 5 3 SSW 1024,9 7 0 0,0
12.01.2018 22:00:00 4,4 3,7 4,0 7,5 8,9 3 2 9 5 SSW 1024,5 9 0 0,0
12.01.2018 21:00:00 4,4 3,7 3,8 7,5 8,9 4 2 9 5 S 1024,1 8 0 0,0
12.01.2018 20:00:00 4,5 3,5 3,4 7,5 8,9 4 2 6 3 SW 1023,8 9 0 0,0
12.01.2018 19:00:00 5,2 4,0 4,0 7,5 8,9 4 2 6 3 SSE 1023,7 9 0 0,0
12.01.2018 18:00:00 5,2 4,0 3,9 7,5 8,9 0 0 7 4 N 1023,9 9 0 0,0
12.01.2018 17:00:00 5,3 3,5 4,3 7,5 8,9 4 2 10 6 NNE 1023,8 13 5 0,0
12.01.2018 16:00:00 5,8 3,6 6,6 7,5 8,9 6 4 19 11 NE 1023,7 17 0 0,0
12.01.2018 15:00:00 5,5 4,1 6,8 7,5 8,9 13 7 21 11 N 1023,4 8 0 0,0
12.01.2018 14:00:00 5,2 3,7 6,9 7,5 8,9 11 6 21 11 NNW 1023,6 12 0 0,0
12.01.2018 13:00:00 4,9 2,9 5,9 7,5 8,9 11 6 19 11 NNE 1023,7 20 0 0,0
12.01.2018 12:00:00 4,3 3,0 5,0 7,5 8,9 9 5 20 11 NNE 1024,0 20 0 0,0
12.01.2018 11:00:00 4,1 3,4 4,4 7,5 8,9 15 8 22 12 N 1024,3 14 0 0,0
12.01.2018 10:00:00 3,8 3,1 3,5 7,5 8,9 8 4 15 8 NNE 1023,7 18 0 0,0
12.01.2018 09:00:00 3,5 3,4 3,3 7,5 8,9 11 6 17 9 NNE 1023,5 11 0 0,0
12.01.2018 08:00:00 3,5 3,5 3,4 7,6 8,9 9 5 14 7 NNE 1022,9 10 0 0,0
12.01.2018 07:00:00 3,4 3,4 3,3 7,6 8,9 8 4 14 8 NE 1022,4 7 0 0,0
12.01.2018 06:00:00 3,4 3,4 3,0 7,6 8,9 8 4 13 7 NNE 1022,0 5 0 0,0

tt = Température de l'air
td = dewpoint
tt 5cm = Température de l'air 5cm
tt -20cm = Température de l'air -20cm
tt -100cm = Température de l'air -100cm
ff = Vitesse du vent
fx = gusts
dd = Direction du vent
ppp = reduced air pressure
vv = visibility
sd = Ensoleillement
rr = Quantités de précipitations

stations d'obs. à proximité